Location: Unspecified
(0.0000°N, 0.0000°E)
Time: 06:45:56
(UTC+00:00)

BREEZE-M R/B - Visible Passes

Search period start: 23 September 2023 00:00
Search period end: 03 October 2023 00:00
Orbit: 2971 x 63308 km, 30.6° (Epoch: 22 September)

Date Brightness Start Highest point End Pass type
(mag) Time Alt. Az. Time Alt. Az. Time Alt. Az.
23 Sep ? 13:26:29 10° ESE 19:04:08 44° SE 20:44:53 27° ESE visible
26 Sep ? 15:27:54 10° WNW 16:52:40 43° W 21:06:34 10° WSW visible
27 Sep ? 12:53:09 10° NW 14:12:53 83° WSW 21:50:27 10° WSW visible
28 Sep ? 10:26:09 10° NW 15:35:17 70° S 22:27:33 10° WSW visible
29 Sep ? 08:00:05 10° NW 16:28:16 64° S 23:10:46 10° WSW visible
30 Sep ? 05:25:23 10° WNW 05:38:09 25° NNW 05:50:29 10° NE visible
30 Sep ? 10:47:45 10° ESE 17:08:29 61° S 03:22:18 10° NE visible
01 Oct ? 11:33:59 10° ESE 17:52:46 58° S 00:56:42 10° ENE visible
02 Oct ? 12:14:30 10° ESE 19:21:51 55° S 22:01:04 51° SE visible
